Precipitable_Water
0.61 0.60 0.58 0.55 0.52 0.49 0.48 0.48 0.47 0.45 0.44 0.43 0.43 0.43 0.44 0.45 0.46 0.47 0.48 0.49 0.50 0.49 0.48 0.48 0.49 0.50 0.52 0.55 0.57 0.57 0.57 0.46 0.38 0.32 0.29 0.27 0.31 0.34 0.37 0.48 0.52 0.81 0.83 0.80 0.88 0.84 0.80 0.87 0.86 1.01 0.96 1.01 1.06 1.14 1.34 1.31 1.28 1.14 0.86 0.76 0.66 0.69 0.67 0.76 0.76 0.78 0.82 0.75 0.84 0.81 0.79 0.74 0.63 0.73 0.81 0.93 0.82 0.78 0.79 0.80 0.88 1.00 1.05 1.08 1.15 1.29 1.37 1.45
0.61 0.60 0.59 0.58 0.55 0.51 0.49 0.48 0.48 0.47 0.45 0.43 0.43 0.43 0.44 0.44 0.45 0.45 0.45 0.47 0.49 0.50 0.49 0.49 0.48 0.49 0.53 0.53 0.57 0.58 0.53 0.42 0.31 0.30 0.25 0.29 0.35 0.34 0.36 0.43 0.50 0.73 0.78 0.65 0.68 0.72 0.72 0.73 0.83 0.90 0.84 0.78 1.09 0.99 1.26 1.12 1.24 0.94 0.84 0.77 0.67 0.72 0.73 0.84 0.86 0.88 0.81 0.76 0.86 0.86 0.85 0.77 0.69 0.75 0.78 0.66 0.65 0.67 0.63 0.72 0.81 0.83 0.99 1.07 1.16 1.24 1.29 1.35
0.60 0.60 0.59 0.59 0.58 0.55 0.52 0.49 0.48 0.48 0.46 0.45 0.43 0.42 0.42 0.44 0.45 0.47 0.47 0.48 0.49 0.50 0.52 0.51 0.50 0.49 0.51 0.54 0.55 0.57 0.49 0.35 0.29 0.20 0.22 0.42 0.42 0.41 0.40 0.41 0.48 0.67 0.58 0.54 0.66 0.73 0.71 0.72 0.78 0.80 0.78 0.67 0.82 0.82 1.08 1.04 1.11 0.98 0.85 0.73 0.74 0.82 0.81 0.85 0.89 0.86 0.87 0.84 0.82 0.84 0.86 0.82 0.78 0.80 0.82 0.64 0.60 0.63 0.53 0.56 0.69 0.72 0.77 0.91 1.03 1.16 1.21 1.27
0.58 0.58 0.58 0.58 0.58 0.58 0.56 0.53 0.49 0.47 0.46 0.46 0.45 0.42 0.42 0.43 0.44 0.45 0.45 0.46 0.47 0.49 0.52 0.53 0.51 0.50 0.51 0.53 0.56 0.56 0.44 0.30 0.17 0.18 0.38 0.48 0.43 0.42 0.41 0.43 0.46 0.58 0.55 0.56 0.59 0.66 0.77 0.79 0.77 0.72 0.63 0.59 0.60 0.77 0.83 1.02 0.94 0.97 0.86 0.75 0.79 0.86 0.78 0.83 0.87 0.87 0.87 0.84 0.79 0.83 0.84 0.80 0.80 0.80 0.72 0.66 0.57 0.56 0.60 0.64 0.58 0.63 0.74 0.87 0.98 1.07 1.15 1.18
0.55 0.56 0.56 0.56 0.55 0.56 0.57 0.56 0.54 0.50 0.47 0.46 0.45 0.45 0.42 0.41 0.41 0.44 0.46 0.47 0.47 0.47 0.49 0.52 0.52 0.51 0.52 0.54 0.53 0.54 0.35 0.16 0.17 0.27 0.35 0.46 0.45 0.43 0.43 0.45 0.45 0.50 0.49 0.52 0.57 0.57 0.63 0.69 0.72 0.64 0.58 0.49 0.54 0.62 0.76 0.95 1.01 0.92 0.84 0.87 0.87 0.88 0.78 0.84 0.85 0.88 0.85 0.86 0.80 0.80 0.70 0.73 0.89 0.81 0.70 0.63 0.47 0.43 0.54 0.66 0.77 0.74 0.78 0.82 0.90 1.01 1.11 1.12
0.53 0.54 0.55 0.54 0.53 0.52 0.53 0.55 0.56 0.55 0.51 0.48 0.45 0.45 0.45 0.42 0.41 0.41 0.43 0.45 0.47 0.48 0.49 0.50 0.51 0.51 0.55 0.56 0.52 0.46 0.28 0.10 0.25 0.28 0.50 0.52 0.48 0.45 0.45 0.48 0.47 0.46 0.46 0.47 0.48 0.51 0.56 0.61 0.59 0.52 0.52 0.51 0.49 0.53 0.71 0.89 0.99 0.75 0.85 0.88 0.92 0.91 0.81 0.84 0.84 0.85 0.85 0.79 0.74 0.72 0.71 0.80 0.78 0.71 0.72 0.61 0.52 0.57 0.71 0.75 0.77 0.84 0.86 0.91 0.97 1.00 1.01 1.05
0.53 0.52 0.53 0.52 0.52 0.52 0.51 0.52 0.52 0.53 0.54 0.53 0.51 0.47 0.45 0.44 0.42 0.41 0.42 0.42 0.44 0.47 0.50 0.50 0.49 0.53 0.55 0.57 0.52 0.36 0.24 0.21 0.27 0.35 0.40 0.51 0.56 0.56 0.53 0.54 0.53 0.41 0.42 0.42 0.45 0.45 0.50 0.53 0.53 0.49 0.50 0.50 0.52 0.54 0.70 0.83 0.91 0.83 0.76 0.85 0.86 0.91 0.83 0.83 0.78 0.82 0.83 0.76 0.73 0.79 0.85 0.67 0.63 0.59 0.76 0.61 0.60 0.69 0.73 0.80 0.83 0.91 0.97 0.95 0.90 0.95 0.96 0.98
0.52 0.51 0.52 0.51 0.51 0.52 0.52 0.51 0.49 0.49 0.50 0.52 0.52 0.52 0.49 0.47 0.45 0.42 0.41 0.43 0.45 0.47 0.50 0.50 0.51 0.54 0.57 0.49 0.31 0.22 0.22 0.17 0.30 0.38 0.40 0.50 0.54 0.65 0.62 0.58 0.49 0.40 0.37 0.36 0.41 0.44 0.48 0.49 0.48 0.51 0.47 0.47 0.52 0.53 0.65 0.71 0.77 0.74 0.72 0.78 0.80 0.84 0.81 0.76 0.73 0.77 0.81 0.80 0.85 0.87 0.75 0.67 0.64 0.67 0.71 0.62 0.62 0.72 0.78 0.83 0.85 0.90 0.95 0.93 0.92 0.93 0.97 0.99
0.52 0.52 0.51 0.51 0.51 0.51 0.52 0.51 0.49 0.48 0.46 0.47 0.49 0.51 0.51 0.50 0.48 0.47 0.45 0.44 0.45 0.48 0.50 0.52 0.53 0.54 0.61 0.46 0.29 0.20 0.16 0.32 0.36 0.41 0.51 0.49 0.52 0.59 0.64 0.48 0.51 0.37 0.34 0.37 0.40 0.44 0.47 0.47 0.48 0.50 0.45 0.48 0.53 0.49 0.57 0.62 0.59 0.68 0.69 0.74 0.74 0.73 0.72 0.71 0.70 0.74 0.80 0.83 0.86 0.81 0.79 0.85 0.80 0.76 0.63 0.72 0.69 0.80 0.86 0.83 0.84 0.86 0.87 0.87 0.88 0.94 0.94 0.96
0.53 0.52 0.51 0.51 0.50 0.51 0.51 0.51 0.50 0.48 0.46 0.45 0.45 0.45 0.48 0.49 0.50 0.49 0.48 0.48 0.48 0.51 0.52 0.55 0.60 0.59 0.52 0.37 0.27 0.16 0.24 0.35 0.37 0.53 0.52 0.52 0.52 0.49 0.47 0.48 0.48 0.39 0.33 0.35 0.39 0.42 0.43 0.46 0.47 0.51 0.53 0.47 0.51 0.49 0.53 0.58 0.56 0.64 0.64 0.66 0.65 0.61 0.61 0.67 0.65 0.71 0.80 0.81 0.85 0.77 0.79 0.81 0.87 0.68 0.45 0.75 0.81 0.86 0.83 0.80 0.85 0.83 0.79 0.83 0.88 0.94 1.00 0.97
0.53 0.52 0.51 0.51 0.50 0.50 0.50 0.50 0.49 0.48 0.47 0.46 0.44 0.43 0.43 0.45 0.47 0.49 0.50 0.50 0.52 0.53 0.55 0.61 0.65 0.63 0.42 0.40 0.21 0.15 0.32 0.35 0.51 0.53 0.50 0.51 0.46 0.38 0.39 0.44 0.46 0.36 0.33 0.34 0.36 0.44 0.48 0.47 0.46 0.47 0.50 0.49 0.49 0.48 0.51 0.57 0.63 0.59 0.59 0.60 0.60 0.58 0.64 0.65 0.68 0.71 0.78 0.78 0.90 0.86 0.82 0.89 0.89 0.74 0.52 0.63 0.83 0.88 0.79 0.76 0.80 0.82 0.82 0.83 0.87 0.91 0.99 1.01
0.53 0.53 0.51 0.51 0.51 0.50 0.49 0.49 0.48 0.47 0.46 0.45 0.44 0.43 0.42 0.41 0.43 0.47 0.48 0.51 0.55 0.58 0.62 0.66 0.68 0.63 0.51 0.36 0.24 0.19 0.33 0.36 0.50 0.48 0.46 0.44 0.40 0.39 0.45 0.45 0.40 0.36 0.33 0.30 0.36 0.45 0.49 0.48 0.46 0.44 0.38 0.54 0.45 0.48 0.48 0.56 0.57 0.58 0.59 0.52 0.59 0.61 0.58 0.64 0.63 0.67 0.76 0.76 0.91 0.91 0.82 0.79 0.79 0.59 0.64 0.73 0.85 0.87 0.81 0.77 0.78 0.79 0.83 0.87 0.88 0.89 0.93 0.99
0.54 0.54 0.52 0.51 0.50 0.50 0.50 0.48 0.48 0.45 0.44 0.44 0.43 0.42 0.42 0.41 0.42 0.43 0.46 0.49 0.56 0.62 0.67 0.70 0.68 0.66 0.46 0.25 0.25 0.34 0.39 0.41 0.43 0.46 0.46 0.46 0.45 0.47 0.50 0.48 0.36 0.37 0.36 0.33 0.35 0.44 0.50 0.50 0.49 0.44 0.48 0.49 0.49 0.44 0.51 0.55 0.55 0.62 0.62 0.57 0.55 0.55 0.54 0.65 0.69 0.73 0.74 0.80 0.92 0.88 0.56 0.62 0.69 0.75 0.72 0.76 0.80 0.85 0.81 0.76 0.77 0.78 0.83 0.86 0.88 0.88 0.89 0.98
0.54 0.54 0.52 0.52 0.51 0.50 0.50 0.49 0.47 0.45 0.43 0.42 0.41 0.40 0.40 0.41 0.42 0.44 0.47 0.51 0.58 0.63 0.67 0.71 0.71 0.61 0.43 0.25 0.34 0.40 0.41 0.42 0.47 0.45 0.43 0.48 0.40 0.42 0.48 0.50 0.39 0.35 0.38 0.37 0.39 0.43 0.48 0.51 0.50 0.49 0.51 0.49 0.46 0.54 0.54 0.56 0.60 0.52 0.59 0.61 0.50 0.44 0.48 0.65 0.67 0.74 0.70 0.88 0.91 0.86 0.54 0.58 0.68 0.76 0.83 0.80 0.79 0.76 0.72 0.74 0.75 0.77 0.78 0.82 0.86 0.86 0.85 0.91
0.52 0.53 0.52 0.51 0.51 0.50 0.49 0.49 0.48 0.46 0.44 0.41 0.39 0.38 0.38 0.40 0.42 0.48 0.55 0.57 0.61 0.64 0.65 0.72 0.70 0.52 0.37 0.32 0.44 0.47 0.51 0.57 0.46 0.44 0.45 0.39 0.36 0.36 0.41 0.46 0.39 0.33 0.35 0.39 0.41 0.42 0.45 0.47 0.48 0.45 0.42 0.51 0.52 0.47 0.49 0.52 0.56 0.59 0.48 0.44 0.49 0.45 0.54 0.62 0.73 0.74 0.64 0.82 0.92 0.82 0.60 0.59 0.70 0.76 0.85 0.88 0.80 0.75 0.71 0.76 0.75 0.73 0.75 0.77 0.82 0.85 0.84 0.86
0.51 0.51 0.51 0.51 0.50 0.49 0.49 0.48 0.47 0.46 0.45 0.41 0.40 0.38 0.40 0.41 0.47 0.56 0.59 0.62 0.61 0.63 0.70 0.58 0.58 0.50 0.36 0.25 0.34 0.41 0.42 0.33 0.37 0.45 0.48 0.40 0.37 0.34 0.42 0.41 0.42 0.39 0.37 0.38 0.44 0.43 0.44 0.44 0.39 0.42 0.42 0.46 0.45 0.45 0.48 0.47 0.51 0.55 0.46 0.44 0.40 0.47 0.53 0.56 0.71 0.80 0.83 0.81 0.88 0.77 0.58 0.66 0.71 0.86 0.91 0.95 0.86 0.78 0.71 0.75 0.78 0.75 0.73 0.75 0.77 0.83 0.86 0.86
0.51 0.50 0.50 0.50 0.49 0.49 0.48 0.47 0.46 0.45 0.43 0.41 0.40 0.38 0.40 0.47 0.58 0.61 0.63 0.63 0.63 0.67 0.60 0.44 0.54 0.58 0.23 0.36 0.47 0.28 0.26 0.38 0.46 0.43 0.43 0.42 0.40 0.40 0.41 0.39 0.34 0.36 0.38 0.37 0.41 0.42 0.40 0.37 0.40 0.40 0.42 0.39 0.43 0.47 0.42 0.40 0.41 0.45 0.48 0.43 0.45 0.41 0.49 0.51 0.71 0.79 0.86 0.81 0.72 0.80 0.67 0.67 0.82 0.89 0.93 0.97 0.95 0.85 0.75 0.73 0.76 0.77 0.76 0.75 0.77 0.81 0.84 0.84
0.50 0.49 0.49 0.49 0.48 0.48 0.47 0.46 0.45 0.44 0.42 0.39 0.40 0.39 0.41 0.56 0.62 0.62 0.61 0.62 0.66 0.63 0.62 0.68 0.61 0.41 0.27 0.39 0.28 0.27 0.32 0.33 0.37 0.40 0.40 0.43 0.44 0.43 0.41 0.34 0.33 0.34 0.34 0.30 0.36 0.33 0.38 0.33 0.36 0.32 0.35 0.36 0.39 0.42 0.35 0.32 0.36 0.40 0.41 0.40 0.43 0.51 0.52 0.51 0.54 0.70 0.81 0.82 0.74 0.76 0.72 0.68 0.79 0.91 0.95 0.98 0.99 0.92 0.81 0.77 0.76 0.74 0.75 0.77 0.77 0.79 0.82 0.83
0.49 0.49 0.49 0.48 0.48 0.47 0.46 0.46 0.45 0.43 0.42 0.41 0.39 0.40 0.57 0.61 0.62 0.60 0.50 0.53 0.39 0.30 0.22 0.33 0.34 0.17 0.14 0.22 0.31 0.32 0.32 0.33 0.33 0.34 0.34 0.41 0.44 0.46 0.43 0.41 0.36 0.30 0.25 0.24 0.25 0.30 0.33 0.33 0.34 0.31 0.28 0.30 0.34 0.38 0.37 0.41 0.44 0.42 0.42 0.40 0.43 0.44 0.49 0.53 0.66 0.79 0.80 0.75 0.72 0.72 0.65 0.68 0.77 0.84 0.95 1.02 1.03 0.95 0.88 0.90 0.85 0.80 0.76 0.77 0.77 0.78 0.80 0.79
0.49 0.49 0.49 0.48 0.47 0.46 0.44 0.44 0.44 0.42 0.43 0.39 0.31 0.29 0.38 0.23 0.21 0.21 0.41 0.34 0.24 0.22 0.21 0.23 0.31 0.28 0.27 0.27 0.27 0.32 0.35 0.34 0.25 0.31 0.38 0.42 0.42 0.41 0.40 0.37 0.32 0.29 0.25 0.18 0.23 0.26 0.31 0.27 0.25 0.25 0.28 0.30 0.35 0.41 0.42 0.45 0.47 0.48 0.47 0.45 0.44 0.48 0.55 0.64 0.67 0.80 0.88 0.80 0.75 0.77 0.77 0.78 0.80 0.84 0.90 1.01 1.06 0.98 0.95 0.90 0.85 0.81 0.77 0.75 0.76 0.76 0.78 0.78
0.49 0.49 0.49 0.48 0.47 0.45 0.42 0.43 0.42 0.42 0.45 0.40 0.31 0.23 0.18 0.21 0.18 0.17 0.22 0.21 0.21 0.23 0.22 0.22 0.24 0.23 0.21 0.26 0.29 0.29 0.23 0.24 0.29 0.29 0.35 0.48 0.43 0.40 0.35 0.33 0.28 0.21 0.21 0.21 0.21 0.27 0.29 0.24 0.25 0.28 0.32 0.33 0.36 0.43 0.45 0.45 0.46 0.45 0.45 0.45 0.48 0.52 0.51 0.63 0.66 0.79 0.91 0.78 0.74 0.81 0.78 0.77 0.82 0.89 0.92 0.99 1.01 0.93 0.88 0.88 0.85 0.80 0.80 0.78 0.74 0.73 0.75 0.76
0.49 0.49 0.48 0.47 0.48 0.45 0.41 0.41 0.41 0.41 0.45 0.37 0.27 0.20 0.25 0.28 0.33 0.34 0.26 0.15 0.20 0.21 0.20 0.21 0.25 0.23 0.27 0.28 0.31 0.32 0.29 0.20 0.20 0.25 0.38 0.38 0.36 0.30 0.34 0.29 0.25 0.19 0.20 0.20 0.21 0.21 0.22 0.21 0.25 0.30 0.34 0.37 0.38 0.41 0.44 0.43 0.42 0.44 0.43 0.48 0.50 0.53 0.58 0.68 0.72 0.79 0.88 0.82 0.73 0.79 0.75 0.76 0.83 0.88 0.94 0.93 0.93 0.98 0.98 0.92 0.89 0.86 0.80 0.79 0.79 0.77 0.77 0.81
0.50 0.49 0.48 0.48 0.47 0.46 0.41 0.39 0.39 0.44 0.37 0.27 0.24 0.25 0.25 0.36 0.37 0.33 0.29 0.22 0.16 0.22 0.21 0.21 0.20 0.22 0.24 0.31 0.32 0.34 0.22 0.17 0.14 0.20 0.27 0.32 0.30 0.29 0.32 0.27 0.24 0.22 0.20 0.18 0.16 0.18 0.18 0.21 0.27 0.31 0.33 0.34 0.36 0.39 0.40 0.41 0.43 0.41 0.44 0.48 0.47 0.56 0.52 0.49 0.65 0.76 0.81 0.78 0.74 0.77 0.73 0.75 0.84 0.90 0.90 0.96 0.96 1.01 1.07 1.02 0.99 0.97 0.86 0.79 0.78 0.80 0.79 0.80
0.49 0.49 0.49 0.48 0.47 0.45 0.41 0.38 0.41 0.41 0.29 0.28 0.27 0.27 0.36 0.39 0.34 0.32 0.28 0.17 0.14 0.18 0.21 0.23 0.25 0.25 0.27 0.26 0.37 0.32 0.23 0.21 0.20 0.16 0.32 0.29 0.25 0.33 0.30 0.29 0.24 0.22 0.18 0.17 0.17 0.17 0.18 0.23 0.27 0.31 0.32 0.33 0.33 0.37 0.37 0.37 0.35 0.39 0.42 0.46 0.51 0.53 0.56 0.56 0.58 0.71 0.79 0.82 0.82 0.78 0.71 0.69 0.74 0.74 0.79 0.91 1.02 1.03 1.05 1.05 1.02 1.02 0.98 0.95 0.95 0.96 0.93 0.84
0.49 0.48 0.48 0.48 0.47 0.48 0.39 0.38 0.32 0.27 0.30 0.29 0.26 0.36 0.39 0.35 0.34 0.34 0.23 0.21 0.23 0.19 0.29 0.28 0.31 0.30 0.33 0.46 0.43 0.32 0.30 0.28 0.23 0.22 0.29 0.31 0.28 0.29 0.27 0.33 0.28 0.20 0.20 0.19 0.17 0.17 0.18 0.24 0.28 0.28 0.31 0.32 0.33 0.33 0.36 0.36 0.34 0.35 0.40 0.47 0.51 0.55 0.58 0.63 0.65 0.65 0.64 0.63 0.74 0.71 0.55 0.51 0.65 0.69 0.72 0.82 0.90 0.92 1.02 0.99 0.95 0.97 0.96 0.95 0.93 0.91 0.96 0.98
0.49 0.48 0.48 0.48 0.48 0.47 0.41 0.27 0.26 0.31 0.27 0.23 0.29 0.38 0.37 0.35 0.35 0.35 0.30 0.18 0.12 0.16 0.24 0.18 0.35 0.31 0.42 0.38 0.41 0.37 0.35 0.23 0.26 0.24 0.29 0.33 0.37 0.30 0.29 0.27 0.30 0.21 0.21 0.20 0.17 0.17 0.19 0.24 0.27 0.26 0.29 0.31 0.32 0.32 0.37 0.39 0.34 0.31 0.32 0.44 0.52 0.57 0.60 0.63 0.65 0.62 0.54 0.48 0.62 0.73 0.51 0.43 0.61 0.59 0.67 0.76 0.79 0.83 0.96 0.95 0.96 0.98 0.99 0.96 0.92 0.93 0.93 0.93
0.49 0.47 0.47 0.48 0.48 0.50 0.32 0.21 0.33 0.33 0.20 0.23 0.30 0.33 0.33 0.33 0.37 0.35 0.23 0.16 0.11 0.22 0.18 0.31 0.31 0.37 0.39 0.39 0.38 0.40 0.18 0.20 0.31 0.30 0.26 0.34 0.30 0.37 0.27 0.24 0.28 0.28 0.27 0.24 0.19 0.15 0.19 0.21 0.25 0.28 0.28 0.29 0.30 0.29 0.35 0.38 0.35 0.30 0.37 0.41 0.47 0.52 0.53 0.56 0.57 0.54 0.51 0.61 0.68 0.67 0.61 0.47 0.46 0.53 0.67 0.76 0.74 0.77 0.82 0.86 0.91 0.95 0.97 0.98 0.95 0.94 0.95 0.93
0.50 0.47 0.47 0.49 0.48 0.49 0.40 0.38 0.32 0.24 0.22 0.25 0.35 0.33 0.34 0.34 0.37 0.43 0.23 0.10 0.08 0.29 0.21 0.29 0.34 0.46 0.36 0.40 0.39 0.28 0.27 0.32 0.21 0.25 0.27 0.32 0.33 0.32 0.27 0.26 0.24 0.23 0.24 0.23 0.12 0.18 0.18 0.18 0.21 0.25 0.27 0.27 0.28 0.32 0.36 0.40 0.37 0.35 0.38 0.41 0.43 0.47 0.49 0.51 0.51 0.48 0.51 0.49 0.48 0.57 0.64 0.49 0.44 0.52 0.66 0.72 0.63 0.68 0.70 0.75 0.81 0.87 0.94 0.97 0.99 0.94 0.95 0.95
0.50 0.48 0.46 0.48 0.49 0.48 0.49 0.41 0.33 0.24 0.29 0.33 0.33 0.34 0.34 0.36 0.31 0.24 0.18 0.09 0.20 0.18 0.39 0.23 0.42 0.38 0.34 0.37 0.33 0.32 0.31 0.33 0.21 0.32 0.32 0.34 0.37 0.33 0.25 0.26 0.28 0.26 0.26 0.24 0.17 0.17 0.18 0.19 0.19 0.24 0.27 0.26 0.30 0.34 0.38 0.40 0.36 0.40 0.42 0.42 0.44 0.47 0.49 0.50 0.49 0.48 0.49 0.44 0.39 0.47 0.56 0.43 0.39 0.51 0.54 0.63 0.57 0.54 0.58 0.65 0.72 0.80 0.87 0.93 0.96 0.97 0.95 0.98
0.52 0.48 0.46 0.48 0.48 0.44 0.44 0.45 0.33 0.32 0.35 0.35 0.34 0.34 0.34 0.34 0.28 0.17 0.13 0.09 0.32 0.18 0.29 0.33 0.26 0.24 0.32 0.26 0.27 0.32 0.28 0.31 0.30 0.34 0.34 0.27 0.31 0.34 0.34 0.38 0.28 0.26 0.24 0.26 0.23 0.21 0.21 0.23 0.23 0.22 0.25 0.29 0.32 0.35 0.38 0.40 0.42 0.45 0.42 0.39 0.39 0.42 0.45 0.50 0.52 0.50 0.46 0.37 0.38 0.45 0.52 0.45 0.30 0.41 0.45 0.46 0.46 0.49 0.51 0.59 0.69 0.79 0.87 0.92 0.96 0.99 0.98 0.98
0.52 0.49 0.45 0.49 0.41 0.45 0.44 0.29 0.30 0.36 0.39 0.38 0.34 0.32 0.30 0.30 0.20 0.14 0.10 0.13 0.23 0.21 0.26 0.24 0.23 0.30 0.25 0.23 0.19 0.27 0.28 0.30 0.29 0.30 0.29 0.31 0.29 0.30 0.32 0.31 0.35 0.28 0.25 0.23 0.22 0.22 0.22 0.23 0.21 0.22 0.26 0.30 0.34 0.34 0.39 0.41 0.43 0.42 0.39 0.37 0.37 0.38 0.44 0.44 0.45 0.50 0.37 0.32 0.37 0.44 0.45 0.48 0.30 0.30 0.44 0.50 0.54 0.54 0.52 0.51 0.57 0.64 0.72 0.80 0.90 0.98 1.02 1.01
0.52 0.50 0.47 0.46 0.47 0.54 0.34 0.25 0.33 0.40 0.38 0.37 0.31 0.23 0.24 0.17 0.22 0.13 0.12 0.33 0.14 0.21 0.22 0.22 0.27 0.27 0.26 0.27 0.23 0.23 0.22 0.27 0.29 0.26 0.26 0.26 0.25 0.24 0.26 0.24 0.27 0.20 0.18 0.18 0.17 0.21 0.18 0.18 0.23 0.23 0.27 0.27 0.30 0.32 0.34 0.39 0.40 0.39 0.38 0.37 0.31 0.30 0.31 0.29 0.36 0.32 0.33 0.30 0.38 0.42 0.47 0.43 0.37 0.36 0.48 0.52 0.54 0.56 0.56 0.56 0.56 0.61 0.66 0.76 0.85 0.93 1.01 1.06
0.53 0.50 0.48 0.47 0.49 0.45 0.43 0.42 0.43 0.40 0.40 0.35 0.26 0.27 0.19 0.16 0.12 0.17 0.16 0.20 0.14 0.25 0.25 0.28 0.26 0.27 0.27 0.25 0.23 0.23 0.26 0.22 0.29 0.25 0.27 0.31 0.26 0.26 0.28 0.27 0.29 0.23 0.15 0.18 0.17 0.16 0.16 0.19 0.19 0.21 0.24 0.27 0.28 0.27 0.30 0.31 0.36 0.36 0.33 0.33 0.30 0.26 0.25 0.24 0.29 0.34 0.35 0.37 0.41 0.41 0.50 0.35 0.41 0.44 0.50 0.49 0.50 0.51 0.50 0.54 0.59 0.66 0.67 0.75 0.81 0.91 1.00 1.06
0.53 0.51 0.46 0.47 0.48 0.48 0.49 0.53 0.49 0.49 0.40 0.35 0.24 0.22 0.21 0.15 0.14 0.23 0.17 0.19 0.18 0.26 0.26 0.25 0.27 0.28 0.26 0.21 0.22 0.24 0.21 0.28 0.27 0.25 0.25 0.26 0.28 0.25 0.27 0.29 0.30 0.27 0.23 0.20 0.14 0.14 0.11 0.11 0.14 0.17 0.17 0.26 0.26 0.27 0.31 0.33 0.33 0.34 0.37 0.34 0.31 0.30 0.25 0.22 0.26 0.25 0.27 0.31 0.39 0.47 0.39 0.32 0.30 0.33 0.47 0.48 0.50 0.51 0.54 0.57 0.61 0.63 0.67 0.74 0.83 0.91 0.97 1.01
0.54 0.50 0.49 0.48 0.50 0.53 0.55 0.58 0.60 0.55 0.43 0.29 0.22 0.21 0.17 0.16 0.21 0.19 0.19 0.19 0.20 0.20 0.19 0.24 0.20 0.20 0.20 0.20 0.23 0.28 0.26 0.25 0.30 0.26 0.24 0.23 0.24 0.26 0.26 0.27 0.30 0.29 0.28 0.18 0.20 0.17 0.13 0.12 0.15 0.17 0.20 0.23 0.23 0.28 0.32 0.33 0.35 0.38 0.38 0.38 0.34 0.31 0.34 0.28 0.32 0.31 0.31 0.31 0.32 0.39 0.33 0.40 0.35 0.49 0.50 0.52 0.51 0.49 0.50 0.52 0.55 0.56 0.62 0.67 0.72 0.79 0.85 0.92
0.52 0.46 0.50 0.45 0.50 0.58 0.64 0.66 0.66 0.59 0.41 0.25 0.20 0.19 0.18 0.19 0.18 0.24 0.21 0.25 0.24 0.20 0.21 0.22 0.21 0.17 0.17 0.18 0.25 0.25 0.31 0.26 0.30 0.28 0.24 0.23 0.27 0.27 0.30 0.31 0.29 0.30 0.25 0.19 0.20 0.14 0.15 0.12 0.16 0.17 0.18 0.20 0.23 0.26 0.29 0.32 0.25 0.33 0.36 0.31 0.32 0.39 0.36 0.35 0.35 0.37 0.36 0.32 0.27 0.41 0.36 0.38 0.47 0.45 0.45 0.47 0.48 0.44 0.47 0.50 0.52 0.52 0.58 0.63 0.63 0.68 0.77 0.85
0.48 0.50 0.40 0.48 0.53 0.62 0.65 0.66 0.64 0.56 0.42 0.26 0.20 0.18 0.21 0.22 0.23 0.25 0.30 0.33 0.27 0.26 0.23 0.17 0.19 0.19 0.18 0.18 0.22 0.24 0.26 0.28 0.28 0.28 0.23 0.25 0.23 0.29 0.31 0.32 0.35 0.33 0.31 0.25 0.19 0.20 0.13 0.13 0.15 0.16 0.16 0.18 0.23 0.26 0.28 0.30 0.33 0.33 0.30 0.33 0.39 0.43 0.42 0.35 0.28 0.32 0.29 0.25 0.30 0.33 0.29 0.31 0.32 0.28 0.42 0.41 0.41 0.43 0.43 0.43 0.48 0.53 0.55 0.55 0.58 0.64 0.69 0.76
0.50 0.49 0.47 0.54 0.63 0.69 0.69 0.68 0.62 0.51 0.37 0.26 0.21 0.21 0.23 0.20 0.24 0.24 0.28 0.27 0.27 0.26 0.23 0.21 0.22 0.24 0.21 0.21 0.21 0.23 0.25 0.23 0.25 0.26 0.23 0.26 0.22 0.30 0.30 0.32 0.36 0.34 0.35 0.34 0.23 0.21 0.18 0.12 0.14 0.15 0.15 0.18 0.19 0.22 0.24 0.29 0.33 0.31 0.31 0.39 0.31 0.29 0.28 0.36 0.32 0.25 0.24 0.23 0.25 0.30 0.32 0.31 0.32 0.30 0.35 0.35 0.36 0.37 0.38 0.42 0.45 0.48 0.50 0.51 0.56 0.61 0.68 0.76
0.53 0.49 0.37 0.58 0.71 0.74 0.69 0.70 0.59 0.45 0.32 0.25 0.23 0.22 0.25 0.22 0.24 0.23 0.23 0.24 0.24 0.23 0.21 0.22 0.20 0.23 0.24 0.23 0.24 0.24 0.24 0.21 0.25 0.25 0.22 0.25 0.22 0.29 0.29 0.33 0.32 0.36 0.37 0.36 0.29 0.26 0.24 0.15 0.15 0.17 0.16 0.17 0.17 0.17 0.15 0.21 0.30 0.32 0.35 0.33 0.38 0.35 0.32 0.28 0.28 0.33 0.29 0.24 0.24 0.24 0.28 0.25 0.32 0.33 0.35 0.35 0.37 0.37 0.38 0.39 0.41 0.44 0.47 0.50 0.55 0.61 0.67 0.72
0.47 0.40 0.35 0.64 0.71 0.77 0.72 0.64 0.51 0.42 0.31 0.24 0.24 0.24 0.26 0.23 0.22 0.23 0.24 0.23 0.22 0.21 0.19 0.18 0.21 0.21 0.23 0.23 0.24 0.21 0.24 0.23 0.23 0.25 0.25 0.26 0.25 0.32 0.31 0.35 0.32 0.35 0.37 0.38 0.34 0.33 0.26 0.27 0.18 0.20 0.21 0.19 0.14 0.15 0.13 0.17 0.21 0.25 0.27 0.28 0.32 0.33 0.38 0.37 0.36 0.30 0.26 0.26 0.24 0.23 0.22 0.25 0.31 0.37 0.36 0.37 0.38 0.38 0.37 0.38 0.39 0.43 0.47 0.50 0.56 0.61 0.65 0.70
0.53 0.42 0.39 0.67 0.74 0.75 0.66 0.55 0.41 0.35 0.30 0.30 0.28 0.25 0.25 0.23 0.24 0.24 0.23 0.24 0.23 0.26 0.23 0.22 0.21 0.19 0.21 0.21 0.21 0.25 0.22 0.22 0.23 0.23 0.25 0.25 0.26 0.24 0.32 0.33 0.35 0.33 0.37 0.36 0.34 0.35 0.30 0.27 0.22 0.23 0.20 0.17 0.15 0.17 0.15 0.15 0.19 0.23 0.25 0.26 0.29 0.28 0.28 0.25 0.25 0.33 0.31 0.27 0.24 0.22 0.19 0.27 0.31 0.37 0.37 0.37 0.40 0.40 0.40 0.40 0.40 0.44 0.49 0.53 0.58 0.62 0.67 0.70
0.44 0.34 0.48 0.61 0.60 0.60 0.48 0.33 0.36 0.39 0.34 0.30 0.27 0.27 0.24 0.27 0.25 0.24 0.25 0.26 0.24 0.22 0.25 0.22 0.22 0.21 0.20 0.19 0.20 0.20 0.19 0.18 0.20 0.22 0.24 0.23 0.28 0.29 0.33 0.36 0.36 0.36 0.33 0.31 0.31 0.35 0.34 0.32 0.28 0.25 0.23 0.20 0.18 0.19 0.20 0.18 0.16 0.18 0.23 0.25 0.29 0.29 0.30 0.27 0.22 0.26 0.28 0.28 0.30 0.29 0.23 0.25 0.32 0.35 0.36 0.38 0.40 0.39 0.39 0.41 0.40 0.43 0.48 0.52 0.56 0.60 0.66 0.71
0.41 0.36 0.40 0.54 0.69 0.63 0.48 0.36 0.36 0.36 0.33 0.34 0.36 0.33 0.33 0.31 0.31 0.30 0.25 0.25 0.24 0.25 0.24 0.23 0.22 0.21 0.21 0.20 0.20 0.20 0.20 0.18 0.19 0.21 0.24 0.26 0.27 0.31 0.36 0.37 0.37 0.35 0.35 0.34 0.34 0.35 0.37 0.30 0.27 0.27 0.28 0.28 0.26 0.25 0.23 0.22 0.19 0.16 0.17 0.22 0.24 0.24 0.26 0.26 0.27 0.31 0.25 0.28 0.25 0.25 0.22 0.24 0.34 0.38 0.38 0.39 0.41 0.43 0.44 0.44 0.42 0.44 0.49 0.53 0.56 0.60 0.63 0.68
0.43 0.41 0.40 0.64 0.75 0.65 0.44 0.32 0.32 0.33 0.35 0.39 0.38 0.35 0.39 0.38 0.36 0.33 0.29 0.30 0.26 0.26 0.25 0.25 0.25 0.25 0.22 0.23 0.21 0.20 0.22 0.17 0.21 0.21 0.23 0.28 0.28 0.35 0.37 0.39 0.39 0.37 0.36 0.36 0.35 0.41 0.30 0.32 0.27 0.24 0.23 0.24 0.25 0.26 0.22 0.24 0.22 0.18 0.14 0.16 0.19 0.23 0.25 0.27 0.30 0.33 0.25 0.27 0.24 0.22 0.18 0.23 0.31 0.37 0.39 0.40 0.39 0.39 0.40 0.43 0.46 0.44 0.49 0.53 0.58 0.61 0.65 0.72
0.44 0.47 0.48 0.56 0.72 0.65 0.43 0.45 0.40 0.37 0.38 0.38 0.38 0.35 0.34 0.34 0.36 0.34 0.33 0.32 0.35 0.32 0.32 0.30 0.29 0.30 0.25 0.24 0.22 0.23 0.25 0.21 0.20 0.26 0.28 0.30 0.30 0.37 0.40 0.41 0.45 0.46 0.47 0.52 0.51 0.54 0.39 0.34 0.29 0.22 0.19 0.17 0.16 0.16 0.15 0.16 0.18 0.21 0.20 0.16 0.16 0.18 0.21 0.23 0.21 0.25 0.21 0.26 0.26 0.22 0.20 0.27 0.32 0.34 0.34 0.39 0.40 0.38 0.41 0.44 0.47 0.48 0.49 0.51 0.55 0.61 0.66 0.71
0.38 0.30 0.33 0.43 0.55 0.55 0.55 0.59 0.53 0.46 0.41 0.40 0.37 0.38 0.39 0.34 0.36 0.37 0.36 0.34 0.36 0.38 0.36 0.37 0.38 0.36 0.33 0.32 0.28 0.26 0.25 0.27 0.24 0.24 0.25 0.27 0.31 0.37 0.41 0.50 0.54 0.53 0.59 0.61 0.61 0.53 0.42 0.40 0.35 0.30 0.25 0.21 0.21 0.23 0.24 0.21 0.19 0.18 0.19 0.18 0.17 0.17 0.19 0.22 0.24 0.23 0.20 0.25 0.23 0.23 0.22 0.25 0.25 0.28 0.30 0.34 0.37 0.37 0.38 0.40 0.41 0.45 0.46 0.50 0.55 0.62 0.69 0.70
0.45 0.32 0.41 0.35 0.43 0.45 0.47 0.53 0.53 0.52 0.44 0.48 0.36 0.40 0.37 0.39 0.41 0.39 0.41 0.32 0.37 0.35 0.37 0.37 0.37 0.34 0.34 0.32 0.29 0.28 0.28 0.26 0.27 0.25 0.24 0.26 0.31 0.37 0.44 0.46 0.48 0.53 0.63 0.65 0.74 0.58 0.45 0.36 0.35 0.33 0.31 0.28 0.27 0.26 0.27 0.23 0.17 0.18 0.18 0.18 0.18 0.18 0.18 0.17 0.19 0.18 0.25 0.23 0.19 0.22 0.24 0.22 0.24 0.25 0.28 0.32 0.35 0.38 0.41 0.42 0.45 0.47 0.48 0.50 0.55 0.62 0.70 0.72
0.34 0.41 0.51 0.54 0.38 0.32 0.40 0.45 0.52 0.50 0.53 0.52 0.43 0.43 0.39 0.39 0.41 0.38 0.43 0.43 0.42 0.44 0.36 0.38 0.38 0.38 0.37 0.35 0.34 0.28 0.30 0.29 0.28 0.25 0.28 0.27 0.29 0.35 0.35 0.40 0.43 0.54 0.60 0.61 0.70 0.57 0.43 0.35 0.35 0.33 0.30 0.30 0.29 0.27 0.27 0.27 0.23 0.18 0.19 0.19 0.18 0.18 0.18 0.16 0.16 0.18 0.22 0.19 0.16 0.21 0.24 0.21 0.22 0.25 0.27 0.31 0.36 0.38 0.38 0.40 0.44 0.47 0.51 0.55 0.57 0.59 0.64 0.66
0.48 0.46 0.43 0.49 0.35 0.39 0.38 0.39 0.46 0.49 0.49 0.49 0.46 0.44 0.38 0.39 0.40 0.46 0.44 0.44 0.42 0.41 0.42 0.35 0.36 0.38 0.39 0.41 0.38 0.34 0.34 0.27 0.27 0.30 0.28 0.27 0.27 0.32 0.33 0.36 0.43 0.55 0.61 0.60 0.59 0.60 0.43 0.36 0.38 0.36 0.31 0.30 0.29 0.27 0.27 0.26 0.27 0.23 0.19 0.20 0.21 0.20 0.19 0.18 0.18 0.18 0.19 0.18 0.19 0.21 0.22 0.20 0.23 0.25 0.28 0.33 0.37 0.38 0.39 0.44 0.48 0.48 0.46 0.50 0.55 0.58 0.62 0.65
0.36 0.35 0.32 0.42 0.42 0.37 0.35 0.37 0.39 0.40 0.37 0.44 0.40 0.42 0.44 0.43 0.41 0.45 0.50 0.46 0.40 0.41 0.46 0.39 0.40 0.42 0.41 0.41 0.40 0.35 0.37 0.39 0.38 0.32 0.38 0.33 0.29 0.33 0.35 0.37 0.41 0.54 0.61 0.57 0.58 0.62 0.48 0.38 0.40 0.36 0.31 0.29 0.29 0.29 0.28 0.27 0.27 0.24 0.23 0.21 0.21 0.23 0.23 0.21 0.19 0.19 0.21 0.20 0.19 0.19 0.20 0.20 0.23 0.28 0.31 0.36 0.41 0.44 0.44 0.42 0.42 0.45 0.49 0.50 0.51 0.55 0.60 0.63
0.45 0.45 0.44 0.35 0.29 0.30 0.35 0.38 0.36 0.33 0.31 0.32 0.35 0.41 0.42 0.43 0.42 0.45 0.46 0.53 0.46 0.43 0.45 0.43 0.44 0.42 0.43 0.42 0.42 0.41 0.46 0.45 0.45 0.44 0.45 0.43 0.33 0.41 0.38 0.46 0.49 0.46 0.54 0.56 0.59 0.59 0.56 0.50 0.48 0.39 0.31 0.27 0.28 0.28 0.28 0.28 0.27 0.25 0.23 0.22 0.21 0.21 0.21 0.24 0.23 0.25 0.23 0.21 0.23 0.24 0.21 0.20 0.24 0.31 0.35 0.38 0.40 0.40 0.38 0.38 0.40 0.44 0.49 0.51 0.52 0.54 0.60 0.64
0.48 0.48 0.46 0.41 0.30 0.35 0.31 0.33 0.33 0.31 0.26 0.32 0.37 0.40 0.40 0.42 0.46 0.46 0.41 0.50 0.53 0.53 0.51 0.48 0.48 0.45 0.42 0.41 0.41 0.47 0.50 0.49 0.48 0.49 0.50 0.51 0.52 0.46 0.47 0.49 0.53 0.51 0.53 0.58 0.65 0.58 0.57 0.52 0.46 0.43 0.34 0.28 0.31 0.31 0.29 0.29 0.27 0.24 0.23 0.23 0.23 0.23 0.23 0.24 0.26 0.27 0.26 0.26 0.25 0.23 0.22 0.25 0.27 0.32 0.33 0.35 0.36 0.38 0.38 0.36 0.39 0.44 0.50 0.52 0.52 0.53 0.58 0.64
Wind_Speed
15 15 15 15 15 15 16 16 16 16 16 16 16 16 17 17 16 16 16 16 15 15 15 14 14 13 13 12 12 12 12 12 11 10 9 10 10 12 13 13 14 15 14 14 15 14 13 12 11 10 9 8 7 7 8 7 6 5 3 2 2 3 3 4 4 4 4 5 6 7 8 7 7 7 6 7 8 9 9 7 8 7 6 10 10 14 17 15
16 16 16 16 16 16 16 16 16 16 16 17 17 17 17 17 17 17 17 17 16 15 15 15 15 14 13 13 12 12 12 11 11 11 10 9 9 11 13 14 16 17 16 16 16 16 14 13 13 12 11 9 8 8 8 8 7 5 3 2 2 2 3 3 4 3 3 5 7 7 7 6 6 7 6 7 8 9 9 8 9 8 9 11 12 16 16 16
17 17 16 16 16 16 17 17 17 17 17 17 17 17 17 17 17 17 18 17 17 16 16 15 15 14 14 13 12 12 11 11 11 10 8 6 6 8 11 14 17 18 17 17 17 17 15 14 14 13 11 9 8 9 9 8 8 6 4 3 2 2 2 3 4 4 3 6 7 6 6 6 6 7 5 7 8 9 8 9 9 10 11 12 14 16 16 17
18 17 17 17 17 17 17 17 17 17 17 17 17 18 18 18 18 18 18 18 18 17 16 16 15 15 14 13 13 12 11 10 9 7 6 5 5 6 9 13 16 18 18 17 17 17 16 15 14 13 12 10 9 10 9 9 8 6 6 4 2 2 2 3 5 5 4 7 8 6 6 6 7 7 6 8 8 7 8 9 10 12 13 14 15 16 16 16
18 18 18 18 18 18 18 18 18 18 18 18 18 18 18 18 18 18 18 18 19 18 18 17 16 15 14 14 13 11 10 9 7 6 7 7 7 7 9 11 15 17 17 17 17 16 16 15 15 13 11 10 9 9 9 11 9 6 7 5 2 3 2 3 5 6 5 7 8 7 7 7 7 7 7 10 8 6 8 9 10 12 14 15 16 16 16 16
18 19 19 19 19 19 19 19 19 18 18 18 18 18 19 19 19 18 18 18 19 19 18 17 17 15 14 14 13 11 10 9 8 8 9 9 9 9 11 12 14 16 17 18 17 17 17 17 16 14 12 10 10 10 9 11 11 8 7 5 4 4 2 2 5 6 7 7 8 8 7 8 8 7 8 10 7 4 7 10 10 12 14 16 16 15 15 15
19 19 19 19 19 19 19 19 19 19 19 19 19 19 19 19 19 19 19 19 19 19 19 18 17 16 15 14 13 12 11 12 12 11 9 8 8 10 12 13 14 16 18 19 18 18 18 18 17 14 13 11 11 10 9 10 11 10 8 5 5 5 3 3 6 7 8 9 8 8 8 9 8 7 8 9 6 4 5 9 11 12 14 16 16 15 15 15
19 19 19 19 19 20 20 20 20 20 20 20 20 19 19 19 19 19 19 19 19 19 18 18 17 16 15 14 13 13 12 14 14 11 10 8 7 9 11 14 15 17 19 20 20 20 20 20 19 15 13 12 11 11 9 9 10 11 9 6 5 5 5 5 7 9 9 8 8 9 9 9 7 6 8 9 7 4 6 9 11 12 14 16 16 15 15 15
20 20 20 20 20 20 20 20 20 20 20 20 20 20 20 20 20 20 19 19 19 19 18 17 16 16 15 14 13 13 13 13 12 11 11 10 9 8 10 13 17 18 19 21 21 21 20 20 20 16 14 13 11 11 10 10 10 10 10 7 5 5 5 7 8 10 10 8 9 10 8 8 7 6 6 7 6 6 7 10 11 12 14 15 16 16 15 14
20 20 20 20 20 20 20 20 21 20 20 20 21 21 21 21 21 20 20 20 19 18 18 16 16 15 15 15 14 13 13 13 13 12 12 11 11 10 10 13 17 19 19 21 21 22 21 20 19 16 13 13 12 11 11 11 9 9 9 7 6 5 6 9 10 11 10 9 11 10 7 7 6 5 4 6 7 7 9 11 11 12 13 14 15 15 15 14
21 21 21 21 21 21 21 21 21 21 21 21 21 21 21 21 21 21 20 20 19 18 17 16 15 14 15 15 15 16 15 14 14 14 14 13 12 12 12 13 17 19 20 21 22 22 21 19 19 16 13 13 13 11 11 11 9 8 8 6 5 5 6 10 11 12 10 9 10 9 7 6 6 5 4 7 8 9 11 12 12 12 13 13 14 14 14 14
21 21 21 21 22 22 21 22 22 22 22 22 22 22 21 22 21 21 20 20 18 17 16 15 14 14 14 15 17 18 16 16 16 16 16 16 15 13 13 14 16 19 20 21 22 22 21 19 19 18 14 13 13 11 11 11 9 10 10 7 6 6 7 10 11 12 11 9 10 9 6 6 7 6 5 8 9 9 11 12 13 13 12 12 13 13 14 14
22 22 22 22 22 22 22 22 22 23 23 23 22 22 22 22 22 21 20 19 17 16 15 14 13 14 14 14 17 19 18 18 18 18 18 17 16 15 14 14 16 18 21 22 21 22 21 19 19 18 15 14 13 11 10 10 10 10 10 9 8 7 9 10 10 12 11 9 12 11 6 6 8 7 6 9 10 10 10 11 13 12 12 12 12 12 13 14
22 22 22 23 23 22 22 22 23 23 23 23 23 23 23 22 22 21 20 18 17 15 15 13 13 13 14 16 18 18 18 18 18 18 17 16 17 15 15 15 16 17 20 22 21 22 21 19 18 17 16 15 13 12 10 10 11 11 10 9 9 9 11 10 10 13 11 9 13 12 7 6 7 7 8 9 11 11 10 11 12 12 12 12 12 13 13 13
23 23 23 23 23 23 23 23 24 24 24 24 24 24 23 22 22 20 18 17 16 15 14 14 14 14 14 17 17 15 16 17 17 17 15 15 17 17 17 17 17 18 20 21 20 21 21 20 19 18 17 16 14 13 12 11 11 11 10 10 11 11 12 11 11 14 12 10 13 12 8 6 6 8 9 9 10 11 10 10 11 12 13 12 12 13 13 13
24 24 24 24 24 24 24 24 25 25 25 25 25 24 23 22 20 19 17 16 15 15 14 14 15 14 14 15 13 13 14 15 16 17 16 16 17 18 18 18 18 19 20 21 20 20 21 20 19 18 17 17 15 14 13 12 12 12 11 11 12 13 13 12 12 14 13 11 13 12 8 5 5 8 10 10 10 11 10 10 11 12 13 13 13 13 13 13
24 24 25 25 25 25 25 25 25 26 26 26 25 24 22 21 19 17 16 16 15 15 15 15 15 15 15 15 14 13 13 15 16 17 18 18 19 19 20 19 19 20 20 21 21 20 20 20 19 18 18 17 16 15 14 14 14 13 12 11 13 15 14 13 13 14 14 13 13 13 10 6 5 7 10 10 11 11 9 10 10 11 12 13 13 13 13 14
25 25 25 25 25 25 26 26 26 26 26 26 25 24 22 20 18 17 16 16 16 16 16 16 15 14 14 14 14 13 13 15 18 19 20 19 20 21 21 20 20 21 21 20 21 22 21 20 19 19 19 18 18 18 17 15 15 15 14 13 14 15 15 14 14 14 16 15 14 13 12 10 6 7 9 9 10 10 9 9 10 10 11 12 13 13 14 14
26 26 25 26 26 26 26 26 26 26 26 25 24 22 20 19 18 17 16 16 16 16 16 15 15 15 16 16 17 17 17 18 19 20 21 20 21 22 22 21 21 22 22 21 21 22 22 20 20 21 21 21 20 20 19 16 16 16 15 15 17 17 16 15 13 14 16 15 15 14 13 11 8 8 8 8 9 10 9 9 9 10 11 12 12 13 13 15
26 26 26 26 26 27 27 27 26 26 25 23 22 20 18 18 18 17 17 18 18 18 19 19 18 19 20 20 20 19 19 18 19 20 21 21 22 23 23 23 22 23 23 23 22 22 23 22 23 23 23 23 22 21 19 16 16 15 14 16 18 18 16 15 13 14 16 15 15 14 12 11 9 8 9 9 9 9 9 9 9 10 10 11 12 13 13 15
27 27 26 27 27 27 27 27 27 26 24 21 21 19 17 17 17 18 19 20 20 20 21 22 21 21 22 22 21 19 18 18 19 20 21 22 23 24 24 24 24 24 24 23 22 22 24 24 24 24 24 23 23 21 18 17 18 16 15 17 18 17 16 15 14 14 16 15 14 13 12 12 10 9 10 10 10 10 10 10 9 10 10 11 12 13 14 14
28 27 27 27 27 28 27 27 27 25 22 21 20 19 17 17 17 18 19 20 21 20 21 22 22 22 22 22 23 21 19 18 20 22 22 23 24 25 25 26 26 25 24 24 23 24 26 26 24 23 23 23 22 21 19 18 19 17 16 18 18 17 16 15 15 15 15 15 13 13 14 14 12 11 12 12 12 11 11 11 10 10 11 11 12 13 14 13
28 28 28 27 28 28 27 27 26 22 21 21 21 19 17 17 18 19 19 19 20 19 20 20 21 21 21 20 19 19 19 19 20 22 23 24 25 26 26 27 27 26 26 27 27 27 26 25 24 23 23 24 22 21 20 19 19 17 17 19 19 18 18 16 15 15 15 14 12 12 14 14 12 13 13 14 14 12 12 12 11 11 12 12 13 13 14 15
29 28 28 28 28 28 28 27 23 21 21 22 20 18 17 18 19 20 19 19 18 17 18 18 18 19 19 16 15 16 18 18 19 21 22 24 25 26 27 27 27 28 28 28 28 28 27 23 23 25 24 25 24 23 23 20 19 18 19 20 20 20 20 17 15 15 14 14 13 13 13 15 15 15 15 14 15 14 13 13 13 13 13 12 13 13 15 16
30 29 29 29 28 28 28 25 21 21 23 21 18 18 18 19 20 20 19 18 17 15 16 16 15 16 15 14 13 14 15 16 19 21 22 24 25 25 26 26 28 29 29 28 28 29 28 23 24 27 26 27 25 24 25 23 20 19 20 20 20 21 20 17 16 15 15 15 16 15 13 14 15 16 16 14 14 15 15 14 15 14 14 13 13 13 14 15
31 30 30 29 28 28 27 22 20 23 23 19 18 18 19 20 21 20 18 18 17 15 14 13 13 13 13 13 13 13 13 14 17 21 23 24 25 24 25 26 27 29 29 28 28 28 28 25 25 28 28 28 27 25 26 24 22 20 20 19 19 20 19 18 18 18 16 15 16 17 16 14 13 15 16 14 15 16 16 16 17 16 15 15 15 14 14 15
31 31 30 30 29 27 24 22 23 24 21 19 19 20 20 21 20 19 17 17 17 14 12 12 12 12 12 13 12 12 13 13 13 18 23 24 24 25 26 27 27 28 28 28 28 28 28 27 27 28 29 30 29 27 25 25 23 20 19 19 19 20 20 19 19 18 17 15 14 17 18 15 14 14 13 14 15 16 17 18 18 18 18 17 17 16 15 16
32 32 31 30 29 27 24 24 25 23 21 20 20 21 21 20 19 17 16 16 14 12 12 12 12 13 13 13 13 14 14 13 13 15 21 24 24 25 27 28 28 28 29 30 30 28 28 30 30 29 29 30 29 26 25 25 23 19 18 19 19 19 20 20 20 18 17 16 15 16 16 14 15 15 12 13 16 16 17 18 18 19 19 19 18 18 17 17
33 32 32 31 30 28 25 24 25 23 22 21 21 21 21 20 19 17 15 16 14 13 13 13 13 13 13 12 14 16 15 15 14 13 17 23 24 24 25 27 27 28 29 32 32 28 27 29 31 31 31 30 28 25 26 27 24 20 19 18 17 17 19 20 20 18 17 17 17 17 17 14 15 16 14 13 15 15 16 16 17 18 19 19 19 19 18 17
34 33 33 32 30 27 25 25 26 25 23 22 22 21 21 19 18 17 16 16 15 13 13 14 14 14 13 12 14 15 15 15 15 13 15 20 23 23 23 24 26 28 28 31 32 31 28 27 28 31 31 30 28 26 27 28 25 21 20 19 16 16 18 18 18 18 17 18 18 18 19 17 15 16 15 14 14 14 14 14 15 16 18 19 19 19 20 18
34 34 34 32 30 28 26 26 26 25 23 23 22 21 20 19 18 18 18 17 16 15 15 16 15 14 14 13 13 13 14 15 15 15 16 19 21 22 22 23 25 27 28 30 31 31 31 29 28 29 31 30 29 29 28 28 26 25 23 22 19 17 18 17 17 19 18 18 18 18 20 19 17 16 15 15 15 14 14 14 15 16 17 18 18 19 20 20
35 35 35 33 31 29 28 27 26 24 24 23 22 21 20 19 20 21 18 16 15 14 14 15 15 15 15 14 14 13 13 14 15 16 17 19 21 23 24 25 26 27 28 30 30 29 32 33 29 28 30 32 32 30 29 29 29 28 26 25 23 19 19 19 18 19 19 18 16 16 18 18 18 18 16 15 16 15 15 15 15 15 16 17 18 19 19 20
36 36 35 33 31 30 29 28 27 27 26 24 23 22 21 21 22 22 20 18 15 14 14 15 16 17 17 16 15 14 13 13 15 17 18 18 20 22 23 24 27 28 26 28 29 29 31 32 32 30 29 32 35 33 31 30 31 31 28 28 26 21 20 20 18 17 18 18 16 16 17 16 17 18 17 17 17 16 15 15 14 14 14 16 17 18 19 21
37 36 34 32 31 31 30 29 28 28 27 25 24 22 23 24 22 21 22 21 19 17 17 17 17 18 17 17 16 15 14 13 14 16 18 18 20 22 22 23 26 27 25 26 29 31 31 31 34 35 30 31 35 35 32 30 31 32 30 29 28 25 23 21 18 18 17 16 15 16 16 15 14 14 15 16 16 15 14 15 15 14 14 15 16 17 18 20
37 35 33 32 30 30 29 28 27 27 26 25 25 25 27 27 23 21 22 22 21 21 21 19 19 20 20 19 17 15 15 14 13 16 19 19 20 22 23 23 25 26 26 26 27 29 32 31 32 33 31 32 33 33 32 30 31 31 30 30 31 28 25 21 19 19 18 15 16 17 17 16 15 15 15 15 14 13 13 14 15 16 15 14 15 17 18 19
36 34 32 30 29 29 29 28 27 27 26 26 26 29 30 28 25 23 22 21 21 21 22 21 20 21 21 19 17 15 15 15 13 15 18 19 20 21 22 22 24 26 27 27 25 26 29 30 30 31 32 33 33 32 33 33 31 29 31 33 30 27 27 24 21 19 19 19 18 18 18 17 16 17 16 15 15 14 13 13 15 16 15 15 16 17 17 18
35 33 31 30 30 29 29 29 28 27 27 27 29 31 30 28 27 25 23 21 21 21 21 20 20 20 20 19 18 16 16 15 14 15 16 18 20 21 21 21 22 26 28 27 26 26 27 28 30 32 33 34 33 32 34 35 32 30 33 33 28 26 27 26 23 20 21 22 20 19 20 19 17 16 14 13 14 15 15 13 14 14 14 15 17 18 18 19
35 33 31 30 29 29 28 28 28 28 28 29 32 32 30 30 28 27 25 24 23 22 21 21 20 19 19 19 18 18 17 16 15 15 15 17 19 19 21 21 21 24 26 28 26 25 26 27 28 32 34 33 32 33 34 35 34 32 33 32 29 28 28 27 25 23 22 23 21 20 22 21 20 18 16 15 15 15 15 13 13 14 15 15 16 18 19 19
35 32 30 29 29 28 26 26 27 28 29 30 32 31 30 30 29 28 28 26 25 25 24 24 22 21 20 20 19 19 18 18 17 16 16 17 17 18 20 21 21 23 25 27 27 25 25 27 26 28 30 30 32 35 37 36 34 33 33 33 32 31 29 28 27 25 24 23 21 21 21 21 22 20 19 20 18 16 16 14 13 16 17 16 16 16 17 19
34 32 30 29 29 28 26 26 27 28 30 31 31 30 29 30 30 29 29 28 27 27 27 26 25 24 23 22 21 21 20 20 19 18 16 16 17 17 19 20 20 21 22 25 27 25 25 27 26 25 27 30 33 36 38 39 36 35 35 35 33 31 29 28 28 27 26 25 23 23 22 21 20 19 19 21 20 18 18 16 14 16 17 17 16 16 17 19
33 32 31 30 30 30 29 28 28 29 30 31 30 30 30 29 29 29 29 30 29 29 28 26 26 26 25 24 23 22 21 21 21 19 18 18 18 17 18 20 19 19 19 23 26 27 26 27 27 26 27 31 34 34 36 38 39 38 37 36 36 34 31 29 28 28 27 26 24 24 24 22 20 20 20 20 19 19 18 16 15 15 16 16 16 17 18 19
32 32 32 32 32 31 30 29 29 29 30 30 30 30 30 30 30 29 29 29 29 29 28 28 27 27 27 26 26 25 24 24 23 22 20 20 20 18 17 17 18 18 19 21 24 26 25 26 28 28 30 32 32 31 31 34 37 39 39 38 37 36 35 34 31 27 27 27 24 23 24 23 20 19 20 20 19 19 17 15 15 15 15 16 17 18 18 19
33 33 33 33 32 31 30 29 29 29 30 30 30 31 31 30 30 29 29 29 29 28 27 28 28 28 28 27 27 26 25 25 25 24 22 20 20 20 18 17 17 18 19 20 21 23 23 25 27 28 29 31 30 29 28 30 33 37 40 40 39 39 39 38 34 30 29 29 26 24 25 24 19 18 18 18 19 19 17 16 17 16 15 15 17 18 18 19
34 35 33 32 31 30 30 30 29 29 30 30 31 32 31 31 30 30 30 29 29 28 27 27 27 27 27 26 26 27 26 24 25 24 23 21 20 20 20 19 18 19 20 20 20 21 23 26 27 26 27 29 30 31 31 31 32 34 37 40 41 41 40 36 33 33 33 33 31 28 27 25 21 19 18 17 17 19 20 19 18 17 16 15 16 17 18 18
34 33 32 31 30 30 30 29 28 29 29 30 31 31 32 32 32 32 32 31 29 29 28 27 27 27 27 26 27 28 27 26 24 23 22 21 20 19 19 20 19 19 20 20 20 20 22 25 27 28 28 29 30 32 33 33 32 32 34 36 39 42 41 36 33 34 35 33 33 33 30 25 23 21 19 19 18 19 20 20 19 19 18 17 17 17 18 19
33 32 31 30 30 30 30 29 28 28 29 29 30 30 31 32 31 32 33 32 31 30 29 28 27 27 27 28 28 29 29 28 26 24 23 22 21 20 19 19 19 19 20 21 21 21 22 25 28 30 31 31 32 32 31 31 33 34 34 35 36 39 41 38 35 36 34 31 33 35 31 27 26 24 22 21 21 20 20 18 17 18 20 19 18 18 18 19
32 32 31 29 29 29 29 28 27 28 29 29 29 29 30 30 30 30 31 31 30 30 30 29 28 28 28 28 28 28 29 29 29 28 26 25 23 22 21 20 19 19 18 19 21 21 22 25 29 31 33 33 33 33 32 32 34 36 35 36 36 36 38 40 40 38 33 31 33 33 31 30 29 27 25 24 22 21 19 18 18 19 20 19 17 17 19 20
32 31 30 29 29 28 28 28 28 28 29 30 30 30 30 30 29 28 29 29 29 29 28 28 29 30 28 26 26 27 27 27 28 28 26 26 25 25 24 23 21 19 17 17 18 19 22 25 28 30 32 33 34 34 32 32 34 35 36 36 35 35 37 39 41 40 36 35 35 31 29 31 31 28 26 25 23 21 20 20 20 19 19 18 17 18 20 21
32 31 30 29 29 29 29 30 30 30 30 29 29 30 30 30 29 27 27 27 27 28 28 28 28 28 27 26 26 27 27 26 27 26 25 25 26 26 25 24 21 19 17 17 16 16 19 23 24 27 30 32 33 32 32 33 34 34 36 36 35 35 37 38 39 39 38 39 38 33 31 32 31 28 26 25 24 23 21 20 20 20 19 19 18 18 20 22
30 30 29 29 29 29 29 30 30 30 29 29 29 30 29 29 28 27 27 28 27 26 26 27 26 25 25 26 27 28 28 27 26 25 24 24 25 25 24 23 21 19 18 17 15 15 17 19 20 23 26 29 30 30 30 32 34 35 36 36 35 34 34 36 37 36 36 37 36 34 34 33 31 28 25 23 22 22 21 20 21 21 20 19 19 19 20 22
29 29 29 29 29 29 28 28 28 28 28 29 29 28 27 27 27 27 28 29 29 27 26 25 24 25 26 27 28 29 28 26 27 27 26 25 25 25 24 23 22 20 19 18 16 15 16 16 16 19 23 25 27 28 29 31 32 35 38 38 36 35 33 33 33 32 33 34 32 32 34 33 30 27 25 23 22 23 23 22 22 21 20 20 21 21 21 23
28 27 27 28 28 28 27 27 27 27 28 27 27 27 27 27 27 27 27 28 28 28 26 23 23 25 26 28 28 27 27 27 28 29 28 28 28 27 26 26 25 22 20 19 17 15 15 14 14 16 20 23 23 24 26 27 27 31 35 37 37 36 34 33 32 32 32 32 31 32 32 30 27 25 26 26 25 24 24 23 22 22 21 21 22 23 23 24
Wind_Direction
321 320 320 318 317 315 314 313 311 310 309 307 306 305 304 304 303 303 303 304 307 306 305 304 303 301 299 299 299 300 301 298 290 279 268 262 255 242 230 220 213 205 201 196 192 188 187 186 181 178 174 176 185 179 175 172 165 158 144 133 135 143 151 150 144 123 118 138 140 144 154 142 134 138 124 123 124 132 137 128 136 137 140 151 153 156 156 155
320 319 319 318 317 315 314 313 312 311 310 309 307 306 304 303 302 301 301 301 302 303 303 302 302 300 298 297 296 297 298 293 286 277 269 265 254 238 226 216 208 203 201 198 196 193 192 191 188 185 181 183 188 185 182 179 178 176 159 160 172 147 132 144 153 136 128 144 142 144 154 148 140 138 135 135 133 140 139 129 133 130 135 145 151 157 157 157
318 317 317 317 317 316 314 313 311 310 310 309 308 307 305 304 302 301 300 299 299 300 300 300 300 299 297 295 294 295 294 289 283 274 263 259 254 236 221 213 206 203 204 203 201 199 197 194 191 189 188 191 192 190 191 186 187 188 181 187 198 172 141 145 164 164 154 147 144 144 149 148 140 140 143 142 142 148 145 138 139 138 139 144 150 157 159 159
316 315 315 315 315 315 315 314 312 310 309 308 307 307 306 305 304 302 300 298 297 297 297 297 297 296 295 294 292 291 289 283 274 258 247 259 260 233 213 209 205 205 206 205 202 202 201 196 195 194 194 197 195 196 198 190 190 190 190 201 185 167 176 168 174 174 163 156 152 144 142 145 142 142 143 141 143 153 157 154 151 146 143 144 149 156 160 161
315 314 314 313 313 314 313 313 312 311 309 307 306 305 305 305 305 303 301 298 296 295 294 294 293 292 291 290 289 287 282 274 258 244 257 270 261 235 216 209 205 206 206 204 201 200 199 197 198 200 200 200 196 199 202 196 196 193 197 213 198 170 193 178 174 172 159 155 153 149 146 142 142 144 146 148 147 151 163 163 156 150 148 148 150 154 159 162
315 314 313 312 312 312 312 312 311 311 309 308 306 305 304 304 304 304 302 299 296 294 292 291 290 287 286 286 284 279 268 260 255 256 265 267 257 238 222 214 208 207 206 203 199 197 196 197 198 200 202 202 200 202 201 197 201 207 205 216 214 200 213 181 173 173 159 156 161 157 143 133 142 148 153 159 152 139 160 161 154 152 152 151 151 154 158 161
315 314 313 312 312 311 311 310 310 310 309 308 306 306 305 304 303 302 301 300 297 295 292 289 287 283 281 281 278 271 257 255 260 259 258 255 250 237 224 218 212 207 205 202 199 197 196 197 199 199 199 202 204 206 203 197 203 215 213 214 224 221 228 198 179 180 170 167 165 153 136 139 151 148 153 167 159 132 155 160 157 154 153 153 153 156 160 161
315 314 313 313 312 311 310 309 309 308 308 307 306 305 305 304 303 302 300 299 298 297 293 289 284 280 277 275 272 267 255 255 259 253 248 248 248 238 223 216 213 208 205 204 201 198 196 196 198 198 201 203 203 204 203 201 205 214 215 213 223 228 230 208 185 182 176 167 158 153 150 150 146 135 153 172 162 142 153 158 159 156 155 155 155 157 161 163
315 314 313 312 312 311 310 309 308 307 307 306 305 305 304 303 303 302 300 299 298 296 294 290 284 277 273 270 267 262 256 255 254 246 245 245 246 240 224 216 213 209 206 205 202 199 197 197 198 200 205 205 203 204 202 206 210 211 213 212 217 226 223 205 188 179 174 163 158 162 162 150 133 126 155 172 157 146 152 156 159 160 159 159 160 160 162 165
314 313 313 312 312 311 310 309 309 307 306 305 305 304 303 303 302 300 299 298 297 295 292 289 284 277 270 266 260 256 256 254 251 245 244 243 242 240 231 220 213 209 206 203 200 199 198 199 200 202 210 208 207 208 203 208 213 207 204 208 216 222 212 199 185 177 171 167 168 167 163 152 142 145 161 162 156 152 153 157 161 163 164 164 164 164 165 167
313 313 312 311 311 311 310 309 309 308 307 305 304 303 302 302 301 299 298 297 295 293 290 286 283 278 272 264 254 253 257 254 250 246 243 241 242 240 233 222 212 209 206 202 201 198 198 200 200 203 211 210 206 208 209 210 211 203 194 195 212 212 201 192 180 174 171 171 172 160 151 155 158 173 166 149 153 157 157 160 164 166 167 167 168 168 169 171
312 312 311 311 310 310 309 309 308 308 307 306 304 303 302 301 299 298 296 295 293 290 287 284 280 278 277 266 253 255 258 253 250 247 244 243 242 238 230 221 212 207 205 202 201 198 198 200 200 204 210 208 203 207 214 211 208 203 196 195 204 201 193 188 179 176 175 172 167 152 150 174 182 180 151 146 153 156 159 162 166 170 170 170 170 172 174 175
310 310 310 310 310 309 309 309 308 308 307 305 304 303 302 300 298 296 294 292 290 287 285 281 277 278 278 268 260 259 258 253 251 248 245 241 237 231 225 219 210 206 205 203 201 199 199 200 201 206 210 209 207 209 209 205 204 201 200 202 201 199 196 190 182 180 178 173 166 162 172 187 188 176 145 152 156 154 160 163 167 173 175 175 175 177 179 180
310 309 308 308 308 308 308 308 308 308 307 305 304 302 302 300 297 295 292 288 286 284 282 279 276 277 274 271 271 266 256 250 248 242 238 234 228 224 219 214 208 206 205 204 203 201 202 202 203 207 210 211 212 210 204 202 204 199 199 204 204 201 195 189 186 183 180 177 175 177 196 194 178 168 153 158 159 157 164 166 170 174 177 181 181 182 185 185
310 308 307 307 306 306 306 307 307 307 307 305 303 302 301 298 296 293 289 286 284 280 279 278 276 276 276 275 277 268 251 244 240 234 232 227 222 219 216 211 208 206 205 204 204 203 204 205 207 209 209 211 213 211 204 204 207 204 202 203 204 201 191 188 192 190 184 182 184 185 198 199 174 164 158 162 164 162 166 170 174 177 179 184 185 187 188 188
310 309 307 306 305 305 305 305 306 306 305 304 303 301 299 297 294 291 288 285 281 278 277 278 275 275 277 275 274 265 249 241 236 232 231 228 224 219 212 209 208 207 207 207 205 204 204 205 209 209 208 208 210 207 204 206 209 210 210 204 201 198 193 192 195 196 187 179 188 192 194 193 171 166 164 166 171 169 169 173 179 182 183 185 187 189 190 191
310 309 307 306 305 304 304 304 304 304 304 303 301 299 297 295 292 289 287 284 281 278 276 277 276 275 273 269 267 263 251 242 238 235 235 233 226 216 209 210 210 208 207 208 207 206 205 206 207 208 208 208 208 204 204 206 205 206 207 204 201 195 191 191 190 194 189 180 187 196 203 200 165 160 166 169 173 175 176 177 181 186 188 189 190 191 193 195
310 309 308 306 305 304 304 304 303 303 303 302 300 297 294 291 289 288 285 283 281 278 277 275 273 273 270 262 261 261 257 251 246 241 238 233 223 215 212 212 211 207 206 208 207 207 207 208 209 208 207 207 206 204 204 204 201 201 200 199 199 196 194 193 188 188 188 188 190 192 204 208 179 161 169 171 176 181 184 184 186 190 191 191 191 193 195 199
310 309 308 306 305 304 304 303 302 302 302 300 298 294 290 287 286 285 283 283 280 276 277 273 268 272 272 265 263 263 262 257 251 243 236 229 221 216 214 213 210 207 208 209 208 208 208 208 209 209 206 204 203 204 207 206 204 205 205 201 197 195 197 195 192 189 189 194 197 195 204 210 194 178 179 180 185 189 191 192 193 194 194 195 194 195 197 201
311 309 308 306 305 305 304 303 302 301 300 297 296 292 287 287 285 283 284 282 277 275 276 271 267 271 272 268 266 265 261 256 249 240 232 226 219 215 215 213 211 211 211 211 210 209 210 211 211 209 205 203 203 207 211 209 207 209 211 207 199 195 195 193 192 193 192 199 206 206 212 215 208 199 195 194 195 198 199 200 201 200 199 199 199 199 200 204
311 310 308 307 305 305 304 302 301 300 296 293 295 291 285 287 286 285 287 284 278 276 274 271 267 268 269 267 264 263 260 254 248 239 231 225 218 216 217 215 213 215 215 212 212 211 212 215 214 211 208 205 207 211 212 209 207 209 210 207 202 200 197 194 195 195 195 204 211 212 220 222 218 212 207 205 205 207 208 208 209 206 205 205 206 205 206 208
311 310 309 307 306 305 303 302 301 297 291 291 293 287 282 285 287 286 287 285 281 277 274 272 269 268 270 269 265 260 255 252 250 241 230 224 222 220 218 216 216 216 215 213 213 212 215 218 214 212 212 210 211 213 212 210 208 210 209 205 204 202 196 195 199 198 200 210 215 215 223 226 222 221 218 215 217 221 219 217 216 212 211 212 211 210 212 212
309 309 308 307 307 305 303 302 299 292 289 292 290 282 280 283 287 286 283 283 282 278 274 272 270 269 269 270 266 256 249 248 248 242 230 223 223 221 216 216 217 215 215 215 215 214 216 219 213 211 213 212 211 213 212 212 211 211 208 205 206 203 199 200 203 203 205 217 221 218 227 231 225 225 226 223 225 229 228 226 223 217 217 218 216 216 216 215
308 308 307 306 306 304 304 301 294 288 292 292 284 277 279 284 289 287 282 281 281 277 276 273 271 268 266 268 263 252 249 246 244 241 230 221 220 219 217 216 216 216 216 216 217 217 218 219 212 209 212 212 211 211 210 211 212 212 210 209 207 203 207 207 203 205 210 220 224 220 234 238 227 226 231 229 229 232 232 230 229 225 223 222 221 221 220 219
306 306 306 306 305 304 303 298 288 289 293 288 277 275 280 285 289 286 282 282 279 276 277 275 270 266 265 264 257 251 253 251 244 239 231 222 218 218 219 218 218 218 216 215 218 220 220 218 211 209 212 213 212 212 211 210 211 214 214 214 209 205 210 208 202 207 214 223 225 221 235 240 227 228 232 228 226 231 233 231 232 230 226 224 222 223 223 222
305 305 305 304 303 303 301 291 287 292 291 281 275 277 282 286 288 283 279 281 279 276 274 269 267 266 267 265 258 255 256 256 249 237 231 226 220 219 219 219 221 219 216 216 219 222 220 215 212 212 211 212 214 214 212 210 211 214 214 213 210 208 210 208 207 213 219 226 225 220 228 238 234 232 231 227 226 230 232 232 233 232 228 225 223 224 224 222
304 303 303 302 302 301 296 287 289 291 284 277 278 279 281 285 284 279 277 279 278 273 266 262 264 266 268 266 256 255 260 261 253 237 230 227 222 221 221 219 220 219 217 217 220 221 217 213 213 214 212 213 215 214 213 211 212 213 210 207 208 209 209 208 212 218 223 228 226 221 226 239 244 239 230 227 229 233 233 232 232 231 229 228 226 226 225 223
302 301 301 300 299 296 289 284 286 285 278 277 279 279 281 282 278 274 275 275 274 270 262 260 262 264 269 267 254 257 266 262 257 244 230 226 224 223 223 220 218 217 217 218 220 221 217 215 214 213 214 216 216 215 212 212 213 214 210 208 210 211 210 211 217 223 225 227 227 222 223 234 243 240 231 228 233 237 236 233 231 228 227 228 228 228 226 226
300 299 299 298 296 292 285 280 280 279 277 278 278 278 280 277 271 269 269 269 270 269 262 257 258 262 267 264 256 260 266 259 257 251 231 226 226 226 225 221 217 216 218 220 222 221 220 219 215 214 216 218 217 216 213 213 216 213 208 209 212 214 215 217 222 224 224 227 228 223 219 229 243 239 232 234 237 239 237 233 230 227 226 227 228 229 228 227
299 297 296 296 293 288 283 278 275 276 276 276 276 276 276 270 264 263 261 263 269 267 259 258 259 259 260 261 262 262 261 258 255 246 232 227 227 227 225 221 219 218 220 223 223 222 221 220 217 217 218 217 216 217 215 216 215 209 207 208 210 214 218 222 225 224 224 229 231 226 221 228 246 243 234 234 235 235 237 235 232 229 228 227 227 228 228 227
298 296 295 293 288 283 281 278 275 274 273 272 274 272 267 263 260 259 258 263 269 265 260 260 256 254 258 263 268 266 262 260 251 238 232 229 226 225 222 220 220 219 221 223 223 222 222 219 217 219 219 215 214 216 216 217 214 210 211 210 208 214 217 220 223 223 227 231 230 230 227 229 243 244 233 232 236 238 240 237 231 227 226 226 228 229 228 228
296 294 293 289 284 279 275 274 274 272 270 271 271 266 259 258 257 255 258 265 267 263 259 255 250 251 259 261 263 266 266 262 250 238 232 229 226 224 222 220 218 218 221 221 220 222 222 220 218 219 218 214 213 214 215 216 215 215 213 209 210 216 217 219 222 224 229 232 231 231 229 231 242 244 237 237 243 245 243 238 234 229 225 224 228 228 227 228
295 294 291 286 281 276 272 272 270 269 269 267 264 260 255 256 257 252 252 257 259 262 258 251 249 251 256 261 264 267 267 261 250 239 233 230 228 225 226 225 220 220 223 221 220 221 221 222 220 218 218 216 214 214 213 214 215 216 213 211 214 217 218 221 223 227 232 233 232 229 229 235 242 243 239 238 244 246 242 239 238 236 230 225 226 227 226 227
295 292 288 283 279 275 271 270 267 265 266 260 256 255 250 253 258 254 250 252 257 261 258 254 256 255 253 260 268 267 261 258 250 239 233 231 229 226 227 227 222 222 224 221 221 221 220 222 219 216 217 215 215 217 216 213 215 218 217 217 220 220 222 224 225 228 230 230 229 225 228 232 231 236 238 238 246 251 246 240 236 235 235 229 227 227 226 227
294 290 286 282 278 274 270 266 263 261 258 254 253 251 248 250 256 255 253 254 256 258 257 257 258 258 257 259 262 260 254 256 254 242 234 231 230 226 225 226 223 222 223 222 223 221 222 224 220 218 219 216 216 218 215 213 216 219 219 221 223 222 223 229 231 230 229 231 228 224 230 234 233 244 248 242 248 251 245 239 231 230 233 228 225 226 227 227
292 288 284 279 276 274 270 265 261 257 253 251 251 250 250 253 254 253 255 254 253 255 257 257 254 253 255 253 252 252 252 254 253 247 239 234 233 228 225 227 224 222 222 223 224 222 223 225 221 218 220 218 216 216 215 216 217 218 219 221 224 224 224 228 233 233 232 235 232 226 232 236 238 248 247 240 245 245 242 239 232 229 227 225 225 225 226 226
289 287 282 276 275 275 271 265 259 254 251 250 250 252 253 255 253 252 254 254 253 253 253 252 250 248 248 245 244 248 253 253 249 249 245 237 235 231 227 229 226 224 224 224 226 226 225 226 222 219 220 220 218 216 217 219 218 219 221 220 222 227 227 228 231 231 232 236 235 229 231 233 234 239 238 236 240 242 244 241 234 230 225 225 227 225 225 225
286 283 277 273 274 275 271 264 258 252 250 250 252 253 253 253 252 252 252 253 252 252 250 247 246 246 243 242 243 246 252 254 250 252 249 240 238 233 227 229 228 226 225 223 227 227 225 227 224 220 221 219 217 218 220 220 220 223 223 219 220 224 224 225 229 229 231 236 238 233 233 234 232 233 238 241 242 245 247 242 234 229 226 228 229 226 226 225
284 280 274 271 272 272 270 264 256 251 251 251 251 253 253 252 252 251 251 250 249 249 248 245 243 243 242 241 244 245 249 252 251 253 250 242 240 235 229 230 231 229 225 222 225 225 224 227 225 221 221 219 217 219 221 220 220 223 223 221 223 225 224 225 228 230 231 236 239 237 236 236 233 233 237 242 246 247 247 247 240 231 228 229 228 225 224 223
282 277 273 271 271 270 269 264 257 253 253 253 252 253 253 252 252 250 248 247 246 246 246 244 241 242 242 242 243 244 246 249 249 250 248 243 242 238 231 231 231 229 225 223 225 225 224 227 226 222 220 219 218 219 221 220 219 220 220 220 221 223 225 227 229 230 232 235 237 239 241 238 234 234 234 238 245 245 246 250 245 233 229 228 227 225 223 222
280 275 271 271 270 269 268 264 258 255 255 255 253 252 252 252 251 250 247 245 245 245 245 243 241 241 242 241 241 242 245 248 247 246 246 243 241 239 233 231 230 227 225 225 227 226 225 226 226 223 220 220 221 221 222 223 222 221 222 221 221 221 223 226 230 230 231 235 237 239 245 242 236 236 235 237 242 244 245 249 245 236 231 229 230 230 227 225
277 273 272 271 269 268 266 262 257 255 255 254 253 252 251 251 249 249 247 243 243 244 243 242 241 239 240 240 240 241 244 246 245 243 244 242 239 237 234 230 226 223 225 228 228 227 227 227 227 226 225 224 224 223 224 226 225 224 224 224 223 223 223 226 230 229 230 235 237 240 246 245 240 238 236 237 239 242 247 248 247 244 238 234 235 233 231 229
275 274 274 272 269 265 262 260 258 255 254 254 254 252 250 249 247 246 245 242 241 241 241 240 239 238 238 238 238 238 240 242 242 240 241 241 238 235 232 227 225 226 229 231 229 225 227 228 227 228 229 228 227 225 225 226 225 224 225 224 224 224 225 228 231 231 232 233 233 238 244 242 240 239 240 242 243 244 247 246 245 247 245 240 237 234 233 230
275 274 273 271 268 263 260 260 258 255 254 254 253 251 249 247 246 245 244 242 241 240 239 238 237 236 236 235 235 235 236 238 239 237 237 238 235 233 232 231 230 231 232 233 230 226 226 228 227 228 229 228 226 224 223 222 222 224 225 224 225 225 225 228 230 232 234 231 229 236 241 238 238 241 242 243 244 245 248 246 245 247 248 245 241 239 236 228
275 272 269 269 267 262 259 259 258 256 255 254 252 250 248 245 244 243 243 242 240 239 239 238 237 236 236 235 235 236 235 236 237 235 234 234 233 232 232 230 230 232 234 234 232 229 231 231 227 226 227 227 225 224 223 222 222 225 225 224 225 225 224 225 227 229 232 231 229 234 238 237 238 242 241 240 244 248 249 248 247 247 247 247 244 242 235 226
274 271 268 267 265 261 258 258 257 256 254 253 251 249 246 245 244 242 242 241 239 237 238 238 237 236 236 235 236 236 235 235 236 235 234 234 231 228 228 229 231 234 237 237 234 232 236 234 229 228 230 230 229 228 226 224 224 226 226 224 224 225 224 224 225 228 230 231 232 234 236 237 238 238 240 241 243 245 246 246 245 244 245 246 246 242 233 225
272 269 268 267 265 261 257 256 256 255 253 252 250 247 247 246 245 242 240 239 238 236 236 236 234 234 233 232 233 234 234 234 234 234 236 236 232 231 233 235 235 237 241 242 237 235 238 235 230 230 232 232 233 231 227 226 226 226 226 226 224 224 224 223 225 228 227 229 234 234 234 237 238 237 239 242 240 241 244 244 241 241 244 246 246 241 231 224
270 269 268 267 263 259 257 256 257 255 252 250 248 246 247 246 244 242 239 239 239 235 233 233 231 230 231 231 231 233 232 232 233 233 234 234 233 233 235 234 233 235 241 246 242 238 239 236 231 230 231 232 233 232 228 227 228 227 226 226 224 223 224 225 227 228 227 231 236 235 233 237 239 238 238 239 236 235 239 240 239 240 242 242 242 238 228 223
269 268 267 266 262 259 259 258 256 253 250 249 247 245 245 244 243 241 239 238 238 233 232 232 228 227 230 231 231 231 231 232 233 232 231 233 232 231 232 232 230 231 236 244 245 240 239 239 234 231 232 231 231 231 228 227 229 228 226 225 223 223 224 226 228 228 228 233 237 236 234 236 237 236 237 237 235 236 239 240 239 239 237 236 237 235 229 225
269 266 265 264 261 259 258 255 254 252 249 247 245 244 243 242 242 242 240 237 234 231 230 230 229 229 230 231 231 231 231 232 234 233 232 234 232 228 229 230 230 231 235 240 244 241 238 240 236 232 233 233 232 231 229 228 229 229 227 225 223 223 224 226 227 227 227 232 235 234 235 237 235 235 236 237 237 238 240 239 238 237 235 233 234 233 230 227
268 266 263 262 259 257 255 253 251 250 248 245 243 243 242 241 241 244 241 234 231 231 230 230 231 232 231 230 231 232 232 233 235 235 235 235 234 230 229 229 230 234 234 234 240 242 240 241 238 232 234 234 231 230 229 229 230 231 230 226 223 223 224 225 226 226 225 228 231 231 234 235 234 234 237 238 237 237 238 238 237 235 232 230 231 230 228 225
268 265 262 259 257 254 253 252 249 248 246 244 243 243 242 241 242 243 239 232 230 229 229 230 233 233 231 230 231 233 234 237 238 238 236 236 234 232 231 230 231 233 231 227 234 242 239 238 240 237 237 236 232 229 229 228 230 231 229 227 224 223 224 226 226 225 224 226 227 230 233 235 232 231 234 237 237 237 238 238 236 233 231 231 231 230 227 225